Time,TemperatureF,DewpointF,PressureIn,WindDirection,WindDirectionDegrees,WindSpeedMPH,WindSpeedGustMPH,Humidity,HourlyPrecipIn,Conditions,Clouds,dailyrainin,SoftwareType,DateUTC
2013-03-06 00:00:00,37.2,34.0,29.65,North,0,2.0,2.2,88,0.00,,---,0.49,VWS V14.00,2013-03-06 05:00:00,
2013-03-06 00:05:00,37.0,33.8,29.65,NW,315,0.0,3.5,88,0.00,,---,0.00,VWS V14.00,2013-03-06 05:05:00,
2013-03-06 00:10:00,36.8,33.3,29.65,NE,45,1.7,3.5,87,0.00,,---,0.00,VWS V14.00,2013-03-06 05:10:00,
2013-03-06 00:15:00,36.6,32.8,29.65,NW,315,3.1,3.1,86,0.00,,---,0.00,VWS V14.00,2013-03-06 05:15:00,
2013-03-06 00:20:00,36.5,32.4,29.65,WNW,292,4.0,4.0,85,0.00,,---,0.00,VWS V14.00,2013-03-06 05:20:00,
2013-03-06 00:25:00,36.3,32.2,29.65,WNW,292,4.4,4.4,85,0.00,,---,0.00,VWS V14.00,2013-03-06 05:25:00,
2013-03-06 00:30:00,36.3,31.9,29.64,WNW,292,2.6,2.6,84,0.00,,---,0.00,VWS V14.00,2013-03-06 05:30:00,
2013-03-06 00:35:00,36.1,31.5,29.64,WNW,292,3.5,5.1,83,0.00,,---,0.00,VWS V14.00,2013-03-06 05:35:00,
2013-03-06 00:40:00,35.7,31.0,29.64,NW,315,4.2,4.2,83,0.00,,---,0.00,VWS V14.00,2013-03-06 05:40:00,
2013-03-06 00:45:00,35.4,30.8,29.64,WNW,292,4.6,4.6,83,0.00,,---,0.00,VWS V14.00,2013-03-06 05:45:00,
2013-03-06 00:50:00,35.4,31.1,29.65,NW,315,3.8,3.8,84,0.00,,---,0.00,VWS V14.00,2013-03-06 05:50:00,
2013-03-06 00:55:00,34.8,30.2,29.65,NW,315,3.1,5.8,83,0.00,,---,0.00,VWS V14.00,2013-03-06 05:55:00,
2013-03-06 01:00:00,34.7,30.1,29.65,NW,315,5.1,5.1,83,0.00,,---,0.00,VWS V14.00,2013-03-06 06:00:00,
2013-03-06 01:05:00,34.3,29.7,29.65,WNW,292,3.5,5.1,83,0.00,,---,0.00,VWS V14.00,2013-03-06 06:05:00,
2013-03-06 01:10:00,34.3,29.7,29.65,WNW,292,2.9,2.9,83,0.00,,---,0.00,VWS V14.00,2013-03-06 06:10:00,
2013-03-06 01:15:00,34.3,29.7,29.66,WNW,292,4.6,5.5,83,0.00,,---,0.00,VWS V14.00,2013-03-06 06:15:00,
2013-03-06 01:20:00,34.1,29.8,29.66,WNW,292,3.3,3.3,84,0.00,,---,0.00,VWS V14.00,2013-03-06 06:20:00,
2013-03-06 01:26:00,33.9,29.6,29.66,NW,315,1.3,3.3,84,0.00,,---,0.00,VWS V14.00,2013-03-06 06:26:00,
2013-03-06 01:31:00,33.8,29.5,29.66,NW,315,0.0,0.0,84,0.00,,---,0.00,VWS V14.00,2013-03-06 06:31:00,
2013-03-06 01:36:00,33.6,29.3,29.66,WNW,292,3.1,3.3,84,0.00,,---,0.00,VWS V14.00,2013-03-06 06:36:00,
2013-03-06 01:41:00,33.4,29.1,29.66,WNW,292,2.9,2.9,84,0.00,,---,0.00,VWS V14.00,2013-03-06 06:41:00,
2013-03-06 01:46:00,33.2,28.9,29.66,WNW,292,4.0,4.0,84,0.00,,---,0.00,VWS V14.00,2013-03-06 06:46:00,
2013-03-06 01:51:00,33.2,28.9,29.66,WNW,292,2.6,2.6,84,0.00,,---,0.00,VWS V14.00,2013-03-06 06:51:00,
2013-03-06 01:56:00,33.2,28.9,29.66,WNW,292,2.4,3.5,84,0.00,,---,0.00,VWS V14.00,2013-03-06 06:56:00,
2013-03-06 02:01:00,33.2,28.9,29.67,WNW,292,2.4,2.4,84,0.00,,---,0.00,VWS V14.00,2013-03-06 07:01:00,
2013-03-06 02:06:00,33.2,29.2,29.67,NNW,338,1.3,2.9,85,0.00,,---,0.00,VWS V14.00,2013-03-06 07:06:00,
2013-03-06 02:11:00,33.2,29.2,29.68,NW,315,6.0,6.0,85,0.00,,---,0.00,VWS V14.00,2013-03-06 07:11:00,
2013-03-06 02:16:00,33.0,29.0,29.68,NW,315,4.0,6.0,85,0.00,,---,0.00,VWS V14.00,2013-03-06 07:16:00,
2013-03-06 02:21:00,32.9,28.9,29.67,North,0,2.6,2.6,85,0.00,,---,0.00,VWS V14.00,2013-03-06 07:21:00,
2013-03-06 02:26:00,32.7,28.7,29.67,North,0,0.0,2.6,85,0.00,,---,0.00,VWS V14.00,2013-03-06 07:26:00,
2013-03-06 02:31:00,32.7,28.4,29.67,NNW,338,1.5,1.5,84,0.00,,---,0.00,VWS V14.00,2013-03-06 07:31:00,
2013-03-06 02:36:00,32.3,28.0,29.67,NNW,338,3.3,3.3,84,0.00,,---,0.00,VWS V14.00,2013-03-06 07:36:00,
2013-03-06 02:41:00,32.1,27.8,29.67,NW,315,2.9,2.9,84,0.00,,---,0.00,VWS V14.00,2013-03-06 07:41:00,
2013-03-06 02:46:00,32.1,27.5,29.67,NW,315,3.1,4.0,83,0.00,,---,0.00,VWS V14.00,2013-03-06 07:46:00,
2013-03-06 02:51:00,31.8,27.2,29.66,NW,315,0.0,0.0,83,0.00,,---,0.00,VWS V14.00,2013-03-06 07:51:00,
2013-03-06 02:56:00,31.8,27.2,29.66,WNW,292,4.4,4.4,83,0.00,,---,0.00,VWS V14.00,2013-03-06 07:56:00,
2013-03-06 03:01:00,31.8,27.2,29.66,West,270,4.0,4.0,83,0.00,,---,0.00,VWS V14.00,2013-03-06 08:01:00,
2013-03-06 03:06:00,31.6,26.8,29.66,West,270,6.0,6.0,82,0.00,,---,0.00,VWS V14.00,2013-03-06 08:06:00,
2013-03-06 03:11:00,31.6,26.5,29.66,WNW,292,5.3,5.3,81,0.00,,---,0.00,VWS V14.00,2013-03-06 08:11:00,
2013-03-06 03:16:00,31.2,26.1,29.66,WNW,292,4.6,5.3,81,0.00,,---,0.00,VWS V14.00,2013-03-06 08:16:00,
2013-03-06 03:21:00,31.2,26.1,29.67,WNW,292,1.7,1.7,81,0.00,,---,0.00,VWS V14.00,2013-03-06 08:21:00,
2013-03-06 03:26:00,31.2,26.1,29.66,NW,315,0.4,1.7,81,0.00,,---,0.00,VWS V14.00,2013-03-06 08:26:00,
2013-03-06 03:31:00,31.2,26.1,29.66,West,270,0.0,0.0,81,0.00,,---,0.00,VWS V14.00,2013-03-06 08:31:00,
2013-03-06 03:36:00,31.2,26.1,29.67,WNW,292,2.4,2.4,81,0.00,,---,0.00,VWS V14.00,2013-03-06 08:36:00,
2013-03-06 03:41:00,31.1,25.7,29.67,WNW,292,4.9,4.9,80,0.00,,---,0.00,VWS V14.00,2013-03-06 08:41:00,
2013-03-06 03:46:00,30.7,25.3,29.67,WNW,292,3.5,4.9,80,0.00,,---,0.00,VWS V14.00,2013-03-06 08:46:00,
2013-03-06 03:51:00,30.7,25.3,29.67,WNW,292,3.8,3.8,80,0.00,,---,0.00,VWS V14.00,2013-03-06 08:51:00,
2013-03-06 03:56:00,30.3,24.9,29.67,WNW,292,2.6,3.8,80,0.00,,---,0.00,VWS V14.00,2013-03-06 08:56:00,
2013-03-06 04:01:00,30.2,25.1,29.67,WNW,292,3.1,3.1,81,0.00,,---,0.00,VWS V14.00,2013-03-06 09:01:00,
2013-03-06 04:06:00,30.0,24.9,29.66,WNW,292,2.4,3.3,81,0.00,,---,0.00,VWS V14.00,2013-03-06 09:06:00,
2013-03-06 04:11:00,29.8,24.7,29.67,WNW,292,6.2,6.2,81,0.00,,---,0.00,VWS V14.00,2013-03-06 09:11:00,
2013-03-06 04:16:00,29.8,24.7,29.67,West,270,4.9,6.2,81,0.00,,---,0.00,VWS V14.00,2013-03-06 09:16:00,
2013-03-06 04:22:00,29.8,24.7,29.67,West,270,1.7,1.7,81,0.00,,---,0.00,VWS V14.00,2013-03-06 09:22:00,
2013-03-06 04:27:00,29.8,24.7,29.68,WNW,292,4.6,4.6,81,0.00,,---,0.00,VWS V14.00,2013-03-06 09:27:00,
2013-03-06 04:32:00,29.8,24.7,29.68,WNW,292,0.0,2.9,81,0.00,,---,0.00,VWS V14.00,2013-03-06 09:32:00,
2013-03-06 04:37:00,29.6,24.5,29.69,WNW,292,4.0,6.2,81,0.00,,---,0.00,VWS V14.00,2013-03-06 09:37:00,
2013-03-06 04:42:00,29.4,24.6,29.68,WNW,292,3.3,3.3,82,0.00,,---,0.00,VWS V14.00,2013-03-06 09:42:00,
2013-03-06 04:47:00,29.3,24.5,29.69,West,270,4.0,4.6,82,0.00,,---,0.00,VWS V14.00,2013-03-06 09:47:00,
2013-03-06 04:52:00,29.3,24.5,29.69,WNW,292,3.8,3.8,82,0.00,,---,0.00,VWS V14.00,2013-03-06 09:52:00,
2013-03-06 04:57:00,29.3,24.5,29.69,WNW,292,5.1,5.1,82,0.00,,---,0.00,VWS V14.00,2013-03-06 09:57:00,
2013-03-06 05:02:00,29.3,24.5,29.69,NW,315,4.4,5.8,82,0.00,,---,0.00,VWS V14.00,2013-03-06 10:02:00,
2013-03-06 05:07:00,29.1,24.0,29.69,West,270,3.5,6.2,81,0.00,,---,0.00,VWS V14.00,2013-03-06 10:07:00,
2013-03-06 05:12:00,29.1,24.0,29.69,NNW,338,2.2,2.2,81,0.00,,---,0.00,VWS V14.00,2013-03-06 10:12:00,
2013-03-06 05:17:00,28.9,23.8,29.69,WNW,292,2.9,2.9,81,0.00,,---,0.00,VWS V14.00,2013-03-06 10:17:00,
2013-03-06 05:22:00,28.7,23.6,29.69,WNW,292,4.6,4.6,81,0.00,,---,0.00,VWS V14.00,2013-03-06 10:22:00,
2013-03-06 05:27:00,28.5,23.4,29.69,WNW,292,3.5,4.6,81,0.00,,---,0.00,VWS V14.00,2013-03-06 10:27:00,
2013-03-06 05:32:00,28.5,23.4,29.70,WNW,292,2.9,2.9,81,0.00,,---,0.00,VWS V14.00,2013-03-06 10:32:00,
2013-03-06 05:37:00,28.5,23.4,29.70,WNW,292,3.3,3.5,81,0.00,,---,0.00,VWS V14.00,2013-03-06 10:37:00,
2013-03-06 05:42:00,28.5,23.4,29.70,WSW,248,4.6,5.8,81,0.00,,---,0.00,VWS V14.00,2013-03-06 10:42:00,
2013-03-06 05:47:00,28.5,23.4,29.71,NW,315,2.0,5.8,81,0.00,,---,0.00,VWS V14.00,2013-03-06 10:47:00,
2013-03-06 05:52:00,28.5,23.4,29.71,WNW,292,1.1,4.9,81,0.00,,---,0.00,VWS V14.00,2013-03-06 10:52:00,
2013-03-06 05:57:00,28.5,23.4,29.71,WNW,292,4.4,4.9,81,0.00,,---,0.00,VWS V14.00,2013-03-06 10:57:00,
2013-03-06 06:02:00,28.5,23.4,29.72,WNW,292,5.3,5.3,81,0.00,,---,0.00,VWS V14.00,2013-03-06 11:02:00,
2013-03-06 06:07:00,28.5,23.4,29.72,WNW,292,6.0,6.0,81,0.00,,---,0.00,VWS V14.00,2013-03-06 11:07:00,
2013-03-06 06:12:00,28.5,23.4,29.72,WNW,292,4.0,4.0,81,0.00,,---,0.00,VWS V14.00,2013-03-06 11:12:00,
2013-03-06 06:17:00,28.2,23.1,29.72,WNW,292,6.4,6.4,81,0.00,,---,0.00,VWS V14.00,2013-03-06 11:17:00,
2013-03-06 06:22:00,28.2,23.1,29.72,WNW,292,6.0,6.0,81,0.00,,---,0.00,VWS V14.00,2013-03-06 11:22:00,
2013-03-06 06:27:00,28.0,22.9,29.72,West,270,4.9,6.0,81,0.00,,---,0.00,VWS V14.00,2013-03-06 11:27:00,
2013-03-06 06:32:00,28.0,23.2,29.71,WNW,292,2.2,2.2,82,0.00,,---,0.00,VWS V14.00,2013-03-06 11:32:00,
2013-03-06 06:37:00,28.0,23.2,29.72,West,270,1.7,2.2,82,0.00,,---,0.00,VWS V14.00,2013-03-06 11:37:00,
2013-03-06 06:42:00,27.6,22.8,29.71,West,270,0.6,0.6,82,0.00,,---,0.00,VWS V14.00,2013-03-06 11:42:00,
2013-03-06 06:47:00,27.6,22.8,29.72,West,270,1.5,1.5,82,0.00,,---,0.00,VWS V14.00,2013-03-06 11:47:00,
2013-03-06 06:52:00,27.5,22.7,29.71,WNW,292,3.1,3.1,82,0.00,,---,0.00,VWS V14.00,2013-03-06 11:52:00,
2013-03-06 06:57:00,27.5,22.7,29.71,West,270,5.3,5.3,82,0.00,,---,0.00,VWS V14.00,2013-03-06 11:57:00,
2013-03-06 07:02:00,27.5,22.7,29.71,West,270,6.4,6.4,82,0.00,,---,0.00,VWS V14.00,2013-03-06 12:02:00,
2013-03-06 07:07:00,27.3,22.5,29.71,WNW,292,2.9,6.4,82,0.00,,---,0.00,VWS V14.00,2013-03-06 12:07:00,
2013-03-06 07:12:00,27.3,22.5,29.71,WNW,292,0.0,3.8,82,0.00,,---,0.00,VWS V14.00,2013-03-06 12:12:00,
2013-03-06 07:17:00,27.5,22.7,29.71,West,270,1.3,3.8,82,0.00,,---,0.00,VWS V14.00,2013-03-06 12:17:00,
2013-03-06 07:22:00,27.6,22.8,29.72,WSW,248,0.6,7.1,82,0.00,,---,0.00,VWS V14.00,2013-03-06 12:22:00,
2013-03-06 07:27:00,28.0,23.2,29.72,NNW,338,2.4,7.1,82,0.00,,---,0.00,VWS V14.00,2013-03-06 12:27:00,
2013-03-06 07:32:00,28.0,23.2,29.72,WNW,292,3.1,4.4,82,0.00,,---,0.00,VWS V14.00,2013-03-06 12:32:00,
2013-03-06 07:37:00,28.2,23.1,29.72,NW,315,3.1,4.6,81,0.00,,---,0.00,VWS V14.00,2013-03-06 12:37:00,
2013-03-06 07:42:00,28.5,23.4,29.72,WNW,292,4.6,6.0,81,0.00,,---,0.00,VWS V14.00,2013-03-06 12:42:00,
2013-03-06 07:48:00,28.5,23.4,29.72,West,270,4.2,6.0,81,0.00,,---,0.00,VWS V14.00,2013-03-06 12:48:00,
2013-03-06 07:53:00,28.9,23.8,29.73,West,270,4.4,4.4,81,0.00,,---,0.00,VWS V14.00,2013-03-06 12:53:00,
2013-03-06 07:58:00,29.1,24.0,29.73,NE,45,2.0,4.4,81,0.00,,---,0.00,VWS V14.00,2013-03-06 12:58:00,
2013-03-06 08:03:00,29.4,24.3,29.74,NNE,22,0.0,1.3,81,0.00,,---,0.00,VWS V14.00,2013-03-06 13:03:00,
2013-03-06 08:08:00,29.8,25.0,29.74,NW,315,2.2,5.5,82,0.00,,---,0.00,VWS V14.00,2013-03-06 13:08:00,
2013-03-06 08:13:00,29.8,25.0,29.74,NW,315,3.1,6.2,82,0.00,,---,0.00,VWS V14.00,2013-03-06 13:13:00,
2013-03-06 08:18:00,30.2,25.4,29.74,WNW,292,3.1,6.2,82,0.00,,---,0.00,VWS V14.00,2013-03-06 13:18:00,
2013-03-06 08:23:00,30.5,25.7,29.74,WNW,292,2.2,4.6,82,0.00,,---,0.00,VWS V14.00,2013-03-06 13:23:00,
2013-03-06 08:28:00,30.7,25.9,29.74,NW,315,4.4,4.6,82,0.00,,---,0.00,VWS V14.00,2013-03-06 13:28:00,
2013-03-06 08:33:00,30.9,26.1,29.74,WNW,292,5.3,5.3,82,0.00,,---,0.00,VWS V14.00,2013-03-06 13:33:00,
2013-03-06 08:38:00,31.2,26.4,29.75,WNW,292,0.0,5.3,82,0.00,,---,0.00,VWS V14.00,2013-03-06 13:38:00,
2013-03-06 08:43:00,31.6,26.8,29.75,West,270,0.8,0.8,82,0.00,,---,0.00,VWS V14.00,2013-03-06 13:43:00,
2013-03-06 08:48:00,31.8,26.9,29.75,West,270,2.6,5.8,82,0.00,,---,0.00,VWS V14.00,2013-03-06 13:48:00,
2013-03-06 08:53:00,31.2,25.8,29.75,WNW,292,4.2,4.2,80,0.00,,---,0.00,VWS V14.00,2013-03-06 13:53:00,
2013-03-06 08:58:00,31.1,25.7,29.75,WNW,292,1.1,4.2,80,0.00,,---,0.00,VWS V14.00,2013-03-06 13:58:00,
2013-03-06 09:03:00,30.7,25.6,29.76,NNW,338,0.0,0.0,81,0.00,,---,0.00,VWS V14.00,2013-03-06 14:03:00,
2013-03-06 09:08:00,30.5,25.4,29.77,NNE,22,0.0,7.3,81,0.00,,---,0.00,VWS V14.00,2013-03-06 14:08:00,
2013-03-06 09:13:00,30.3,24.9,29.77,NW,315,3.1,3.1,80,0.00,,---,0.00,VWS V14.00,2013-03-06 14:13:00,
2013-03-06 09:18:00,30.2,24.8,29.77,NW,315,6.4,6.4,80,0.00,,---,0.00,VWS V14.00,2013-03-06 14:18:00,
2013-03-06 09:23:00,30.3,24.9,29.77,ENE,68,1.3,5.1,80,0.00,,---,0.00,VWS V14.00,2013-03-06 14:23:00,
2013-03-06 09:28:00,30.2,25.1,29.77,WNW,292,0.0,5.1,81,0.00,,---,0.00,VWS V14.00,2013-03-06 14:28:00,
2013-03-06 09:33:00,30.3,25.2,29.77,WNW,292,0.0,0.6,81,0.00,,---,0.00,VWS V14.00,2013-03-06 14:33:00,
2013-03-06 09:38:00,30.7,25.3,29.78,WSW,248,7.1,7.1,80,0.00,,---,0.00,VWS V14.00,2013-03-06 14:38:00,
2013-03-06 09:43:00,31.1,25.4,29.78,WNW,292,9.8,9.8,79,0.00,,---,0.00,VWS V14.00,2013-03-06 14:43:00,
2013-03-06 09:48:00,31.8,25.4,29.79,WNW,292,9.1,9.8,77,0.00,,---,0.00,VWS V14.00,2013-03-06 14:48:00,
2013-03-06 09:53:00,32.3,25.6,29.79,WNW,292,5.1,8.5,76,0.00,,---,0.00,VWS V14.00,2013-03-06 14:53:00,
2013-03-06 09:58:00,32.9,25.9,29.79,West,270,4.0,8.5,75,0.00,,---,0.00,VWS V14.00,2013-03-06 14:58:00,
2013-03-06 10:03:00,33.4,26.0,29.79,West,270,5.3,6.4,74,0.00,,---,0.00,VWS V14.00,2013-03-06 15:03:00,
2013-03-06 10:08:00,33.6,26.2,29.79,West,270,2.2,6.4,74,0.00,,---,0.00,VWS V14.00,2013-03-06 15:08:00,
2013-03-06 10:13:00,33.6,25.9,29.80,WNW,292,6.2,6.2,73,0.00,,---,0.00,VWS V14.00,2013-03-06 15:13:00,
2013-03-06 10:18:00,33.9,26.2,29.80,West,270,4.4,6.2,73,0.00,,---,0.00,VWS V14.00,2013-03-06 15:18:00,
2013-03-06 10:23:00,33.9,26.2,29.81,West,270,1.5,5.3,73,0.00,,---,0.00,VWS V14.00,2013-03-06 15:23:00,
2013-03-06 10:28:00,34.1,26.4,29.81,West,270,5.8,6.9,73,0.00,,---,0.00,VWS V14.00,2013-03-06 15:28:00,
2013-03-06 10:33:00,34.3,26.6,29.81,WNW,292,2.6,5.3,73,0.00,,---,0.00,VWS V14.00,2013-03-06 15:33:00,
2013-03-06 10:38:00,34.7,27.0,29.82,NNE,22,6.4,6.4,73,0.00,,---,0.00,VWS V14.00,2013-03-06 15:38:00,
2013-03-06 10:43:00,35.2,27.4,29.82,NW,315,0.0,2.6,73,0.00,,---,0.00,VWS V14.00,2013-03-06 15:43:00,
2013-03-06 10:48:00,36.3,28.5,29.82,NW,315,1.5,4.2,73,0.00,,---,0.00,VWS V14.00,2013-03-06 15:48:00,
2013-03-06 10:53:00,37.2,28.7,29.82,West,270,3.5,6.4,71,0.00,,---,0.00,VWS V14.00,2013-03-06 15:53:00,
2013-03-06 10:58:00,37.5,29.0,29.82,NNE,22,4.6,6.4,71,0.00,,---,0.00,VWS V14.00,2013-03-06 15:58:00,
2013-03-06 11:03:00,38.8,29.9,29.82,NNW,338,4.0,4.0,70,0.00,,---,0.00,VWS V14.00,2013-03-06 16:03:00,
2013-03-06 11:08:00,39.3,30.4,29.83,ENE,68,3.5,4.0,70,0.00,,---,0.00,VWS V14.00,2013-03-06 16:08:00,
2013-03-06 11:13:00,39.7,30.4,29.83,ENE,68,4.2,4.2,69,0.00,,---,0.00,VWS V14.00,2013-03-06 16:13:00,
2013-03-06 11:18:00,39.9,30.2,29.83,NNW,338,6.9,8.5,68,0.00,,---,0.00,VWS V14.00,2013-03-06 16:18:00,
2013-03-06 11:23:00,39.9,29.9,29.84,NW,315,4.9,5.5,67,0.00,,---,0.00,VWS V14.00,2013-03-06 16:23:00,
2013-03-06 11:29:00,39.9,29.9,29.84,West,270,7.3,7.3,67,0.00,,---,0.00,VWS V14.00,2013-03-06 16:29:00,
2013-03-06 11:34:00,40.6,30.9,29.84,WNW,292,4.9,11.4,68,0.00,,---,0.00,VWS V14.00,2013-03-06 16:34:00,
2013-03-06 11:39:00,40.8,30.3,29.84,NNE,22,5.3,13.6,66,0.00,,---,0.00,VWS V14.00,2013-03-06 16:39:00,
2013-03-06 11:44:00,40.6,30.5,29.85,NE,45,0.8,5.5,67,0.00,,---,0.00,VWS V14.00,2013-03-06 16:44:00,
2013-03-06 11:49:00,39.9,29.9,29.85,West,270,2.9,7.1,67,0.00,,---,0.00,VWS V14.00,2013-03-06 16:49:00,
2013-03-06 11:54:00,39.5,29.5,29.85,West,270,4.9,4.9,67,0.00,,---,0.00,VWS V14.00,2013-03-06 16:54:00,
2013-03-06 11:59:00,39.5,29.8,29.85,NNE,22,4.6,4.9,68,0.00,,---,0.00,VWS V14.00,2013-03-06 16:59:00,
2013-03-06 12:04:00,38.8,29.2,29.85,ENE,68,4.6,4.6,68,0.00,,---,0.00,VWS V14.00,2013-03-06 17:04:00,
2013-03-06 12:09:00,38.4,28.8,29.85,West,270,4.0,4.6,68,0.00,,---,0.00,VWS V14.00,2013-03-06 17:09:00,
2013-03-06 12:14:00,38.4,29.1,29.85,NW,315,6.0,6.0,69,0.00,,---,0.00,VWS V14.00,2013-03-06 17:14:00,
2013-03-06 12:19:00,38.4,29.1,29.85,NNE,22,0.8,6.0,69,0.00,,---,0.00,VWS V14.00,2013-03-06 17:19:00,
2013-03-06 12:24:00,38.3,29.0,29.86,WNW,292,9.8,11.8,69,0.00,,---,0.00,VWS V14.00,2013-03-06 17:24:00,
2013-03-06 12:29:00,37.9,29.0,29.86,NW,315,0.0,11.8,70,0.00,,---,0.00,VWS V14.00,2013-03-06 17:29:00,
2013-03-06 12:34:00,37.4,28.5,29.86,NE,45,2.2,5.3,70,0.00,,---,0.00,VWS V14.00,2013-03-06 17:34:00,
2013-03-06 12:39:00,37.2,28.7,29.86,ENE,68,4.9,5.3,71,0.00,,---,0.00,VWS V14.00,2013-03-06 17:39:00,
2013-03-06 12:44:00,36.5,28.0,29.86,NE,45,6.2,6.2,71,0.00,,---,0.00,VWS V14.00,2013-03-06 17:44:00,
2013-03-06 12:49:00,35.9,27.8,29.87,WNW,292,7.3,9.8,72,0.00,,---,0.00,VWS V14.00,2013-03-06 17:49:00,
2013-03-06 12:54:00,35.4,27.6,29.87,ENE,68,0.2,4.9,73,0.00,,---,0.00,VWS V14.00,2013-03-06 17:54:00,
2013-03-06 12:59:00,35.4,27.6,29.87,NE,45,10.0,10.0,73,0.00,,---,0.00,VWS V14.00,2013-03-06 17:59:00,
2013-03-06 13:04:00,34.5,27.1,29.88,ENE,68,1.1,5.3,74,0.00,,---,0.00,VWS V14.00,2013-03-06 18:04:00,
2013-03-06 13:09:00,34.3,27.2,29.88,NE,45,1.3,5.3,75,0.00,,---,0.00,VWS V14.00,2013-03-06 18:09:00,
2013-03-06 13:14:00,34.3,27.5,29.88,ENE,68,0.4,3.3,76,0.00,,---,0.00,VWS V14.00,2013-03-06 18:14:00,
2013-03-06 13:19:00,34.3,27.5,29.89,ENE,68,1.1,3.3,76,0.00,,---,0.00,VWS V14.00,2013-03-06 18:19:00,
2013-03-06 13:24:00,34.5,27.7,29.88,NNE,22,3.1,4.6,76,0.00,,---,0.00,VWS V14.00,2013-03-06 18:24:00,
2013-03-06 13:29:00,34.3,27.5,29.88,NE,45,1.5,4.6,76,0.00,,---,0.00,VWS V14.00,2013-03-06 18:29:00,
2013-03-06 13:34:00,34.3,27.5,29.88,NE,45,3.3,7.1,76,0.00,,---,0.00,VWS V14.00,2013-03-06 18:34:00,
2013-03-06 13:39:00,34.7,27.9,29.89,NE,45,0.8,7.1,76,0.00,,---,0.00,VWS V14.00,2013-03-06 18:39:00,
2013-03-06 13:44:00,34.8,28.0,29.89,WNW,292,8.0,8.0,76,0.00,,---,0.00,VWS V14.00,2013-03-06 18:44:00,
2013-03-06 13:49:00,35.2,28.1,29.88,WNW,292,2.4,8.0,75,0.00,,---,0.00,VWS V14.00,2013-03-06 18:49:00,
2013-03-06 13:54:00,35.9,28.8,29.87,WNW,292,4.6,6.0,75,0.00,,---,0.00,VWS V14.00,2013-03-06 18:54:00,
2013-03-06 13:59:00,36.3,28.8,29.87,NW,315,4.9,6.0,74,0.00,,---,0.00,VWS V14.00,2013-03-06 18:59:00,
2013-03-06 14:04:00,36.5,29.0,29.87,WNW,292,2.4,5.8,74,0.00,,---,0.00,VWS V14.00,2013-03-06 19:04:00,
2013-03-06 14:09:00,37.0,29.8,29.88,West,270,6.4,7.1,75,0.00,,---,0.00,VWS V14.00,2013-03-06 19:09:00,
2013-03-06 14:14:00,37.4,30.2,29.88,WNW,292,6.0,6.4,75,0.00,,---,0.00,VWS V14.00,2013-03-06 19:14:00,
2013-03-06 14:19:00,37.7,30.5,29.89,North,0,1.3,6.4,75,0.00,,---,0.00,VWS V14.00,2013-03-06 19:19:00,
2013-03-06 14:24:00,37.5,30.0,29.89,WNW,292,2.6,7.8,74,0.00,,---,0.00,VWS V14.00,2013-03-06 19:24:00,
2013-03-06 14:29:00,37.2,29.7,29.89,WNW,292,2.6,7.8,74,0.00,,---,0.00,VWS V14.00,2013-03-06 19:29:00,
2013-03-06 14:34:00,37.4,30.2,29.89,WNW,292,8.2,8.2,75,0.00,,---,0.00,VWS V14.00,2013-03-06 19:34:00,
2013-03-06 14:39:00,37.5,30.0,29.89,WNW,292,5.5,8.2,74,0.00,,---,0.00,VWS V14.00,2013-03-06 19:39:00,
2013-03-06 14:44:00,37.4,29.9,29.89,NW,315,3.5,5.5,74,0.00,,---,0.00,VWS V14.00,2013-03-06 19:44:00,
2013-03-06 14:49:00,37.4,30.2,29.90,WNW,292,4.0,5.5,75,0.00,,---,0.00,VWS V14.00,2013-03-06 19:49:00,
2013-03-06 14:54:00,37.7,30.5,29.89,NE,45,0.6,2.6,75,0.00,,---,0.00,VWS V14.00,2013-03-06 19:54:00,
2013-03-06 14:59:00,38.3,31.1,29.90,ENE,68,4.2,4.2,75,0.00,,---,0.00,VWS V14.00,2013-03-06 19:59:00,
2013-03-06 15:04:00,38.4,31.2,29.90,NW,315,5.5,5.5,75,0.00,,---,0.00,VWS V14.00,2013-03-06 20:04:00,
2013-03-06 15:09:00,38.3,30.8,29.91,NW,315,4.4,5.8,74,0.00,,---,0.00,VWS V14.00,2013-03-06 20:09:00,
2013-03-06 15:14:00,38.1,30.9,29.90,WNW,292,6.0,6.0,75,0.00,,---,0.00,VWS V14.00,2013-03-06 20:14:00,
2013-03-06 15:19:00,37.9,30.7,29.90,NW,315,4.2,6.9,75,0.00,,---,0.00,VWS V14.00,2013-03-06 20:19:00,
2013-03-06 15:25:00,37.5,30.3,29.91,WNW,292,5.1,5.1,75,0.00,,---,0.00,VWS V14.00,2013-03-06 20:25:00,
2013-03-06 15:30:00,37.2,30.0,29.91,NW,315,5.3,5.5,75,0.00,,---,0.00,VWS V14.00,2013-03-06 20:30:00,
2013-03-06 15:35:00,37.2,30.4,29.91,West,270,1.1,4.9,76,0.00,,---,0.00,VWS V14.00,2013-03-06 20:35:00,
2013-03-06 15:40:00,37.2,30.4,29.91,West,270,4.9,4.9,76,0.00,,---,0.00,VWS V14.00,2013-03-06 20:40:00,
2013-03-06 15:45:00,37.2,30.4,29.90,WNW,292,6.0,6.0,76,0.00,,---,0.00,VWS V14.00,2013-03-06 20:45:00,
2013-03-06 15:50:00,37.2,30.4,29.91,North,0,3.8,6.0,76,0.00,,---,0.00,VWS V14.00,2013-03-06 20:50:00,
2013-03-06 15:55:00,36.8,30.0,29.91,WNW,292,6.7,7.8,76,0.00,,---,0.00,VWS V14.00,2013-03-06 20:55:00,
2013-03-06 16:00:00,36.5,29.7,29.91,WNW,292,4.9,7.8,76,0.00,,---,0.00,VWS V14.00,2013-03-06 21:00:00,
2013-03-06 16:05:00,36.3,29.8,29.91,NNE,22,1.3,6.7,77,0.00,,---,0.00,VWS V14.00,2013-03-06 21:05:00,
2013-03-06 16:10:00,35.9,29.4,29.91,West,270,1.1,6.9,77,0.00,,---,0.00,VWS V14.00,2013-03-06 21:10:00,
2013-03-06 16:15:00,35.9,29.4,29.92,NE,45,1.5,5.1,77,0.00,,---,0.00,VWS V14.00,2013-03-06 21:15:00,
2013-03-06 16:20:00,35.9,29.4,29.92,NE,45,7.3,7.3,77,0.00,,---,0.00,VWS V14.00,2013-03-06 21:20:00,
2013-03-06 16:25:00,35.4,29.5,29.93,ENE,68,2.6,11.4,79,0.00,,---,0.00,VWS V14.00,2013-03-06 21:25:00,
2013-03-06 16:30:00,35.7,29.8,29.93,East,90,0.0,11.4,79,0.00,,---,0.00,VWS V14.00,2013-03-06 21:30:00,
2013-03-06 16:35:00,36.3,30.1,29.94,WSW,248,5.8,5.8,78,0.00,,---,0.00,VWS V14.00,2013-03-06 21:35:00,
2013-03-06 16:40:00,36.3,30.1,29.93,WSW,248,5.8,5.8,78,0.00,,---,0.00,VWS V14.00,2013-03-06 21:40:00,
2013-03-06 16:45:00,36.3,30.1,29.93,WSW,248,6.4,9.8,78,0.00,,---,0.00,VWS V14.00,2013-03-06 21:45:00,
2013-03-06 16:50:00,36.1,29.9,29.93,WSW,248,10.2,10.2,78,0.00,,---,0.00,VWS V14.00,2013-03-06 21:50:00,
2013-03-06 16:55:00,35.2,29.4,29.93,ENE,68,3.3,6.9,79,0.00,,---,0.00,VWS V14.00,2013-03-06 21:55:00,
2013-03-06 17:00:00,34.8,29.0,29.93,South,180,0.0,6.9,79,0.00,,---,0.00,VWS V14.00,2013-03-06 22:00:00,
2013-03-06 17:05:00,35.2,29.4,29.94,ENE,68,12.5,12.5,79,0.00,,---,0.00,VWS V14.00,2013-03-06 22:05:00,
2013-03-06 17:10:00,34.8,29.0,29.94,NE,45,1.3,12.5,79,0.00,,---,0.00,VWS V14.00,2013-03-06 22:10:00,
2013-03-06 17:15:00,34.1,28.3,29.95,WNW,292,4.9,7.1,79,0.00,,---,0.00,VWS V14.00,2013-03-06 22:15:00,
2013-03-06 17:20:00,33.4,27.9,29.97,WNW,292,7.1,7.1,80,0.00,,---,0.00,VWS V14.00,2013-03-06 22:20:00,
2013-03-06 17:25:00,32.7,27.5,29.99,WNW,292,6.4,10.0,81,0.00,,---,0.00,VWS V14.00,2013-03-06 22:25:00,
2013-03-06 17:30:00,32.1,27.2,30.00,NW,315,0.6,11.8,82,0.00,,---,0.00,VWS V14.00,2013-03-06 22:30:00,
2013-03-06 17:35:00,32.1,27.2,30.00,WNW,292,0.0,6.2,82,0.00,,---,0.00,VWS V14.00,2013-03-06 22:35:00,
2013-03-06 17:40:00,32.1,27.5,30.01,NW,315,0.0,6.2,83,0.00,,---,0.00,VWS V14.00,2013-03-06 22:40:00,
2013-03-06 17:45:00,32.1,27.5,30.01,NW,315,0.0,2.6,83,0.00,,---,0.00,VWS V14.00,2013-03-06 22:45:00,
2013-03-06 17:50:00,31.8,27.2,30.02,NE,45,0.0,0.0,83,0.00,,---,0.00,VWS V14.00,2013-03-06 22:50:00,
2013-03-06 17:55:00,31.8,27.5,30.02,NE,45,4.6,4.6,84,0.00,,---,0.00,VWS V14.00,2013-03-06 22:55:00,
2013-03-06 18:00:00,31.6,27.6,30.02,NE,45,0.0,8.0,85,0.00,,---,0.00,VWS V14.00,2013-03-06 23:00:00,
2013-03-06 18:05:00,31.6,27.6,30.02,NE,45,0.0,2.9,85,0.00,,---,0.00,VWS V14.00,2013-03-06 23:05:00,
2013-03-06 18:10:00,31.6,27.6,30.02,ENE,68,1.1,2.9,85,0.00,,---,0.00,VWS V14.00,2013-03-06 23:10:00,
2013-03-06 18:15:00,31.2,27.5,30.03,West,270,4.6,8.5,86,0.00,,---,0.00,VWS V14.00,2013-03-06 23:15:00,
2013-03-06 18:20:00,31.2,27.5,30.03,ENE,68,2.2,8.5,86,0.00,,---,0.00,VWS V14.00,2013-03-06 23:20:00,
2013-03-06 18:25:00,31.2,27.8,30.03,ENE,68,2.4,5.8,87,0.00,,---,0.00,VWS V14.00,2013-03-06 23:25:00,
2013-03-06 18:30:00,31.1,27.7,30.04,NE,45,2.4,5.8,87,0.00,,---,0.00,VWS V14.00,2013-03-06 23:30:00,
2013-03-06 18:35:00,30.9,27.8,30.04,ENE,68,4.0,4.6,88,0.00,,---,0.00,VWS V14.00,2013-03-06 23:35:00,
2013-03-06 18:40:00,30.9,27.8,30.04,NE,45,6.0,6.0,88,0.00,,---,0.00,VWS V14.00,2013-03-06 23:40:00,
2013-03-06 18:45:00,30.9,27.8,30.03,ENE,68,9.1,9.1,88,0.00,,---,0.00,VWS V14.00,2013-03-06 23:45:00,
2013-03-06 18:50:00,30.9,27.8,30.03,ENE,68,2.0,2.0,88,0.00,,---,0.00,VWS V14.00,2013-03-06 23:50:00,
2013-03-06 18:55:00,30.9,27.8,30.03,ENE,68,5.5,5.5,88,0.00,,---,0.00,VWS V14.00,2013-03-06 23:55:00,
2013-03-06 19:00:00,30.9,27.8,30.04,NE,45,7.8,7.8,88,0.00,,---,0.00,VWS V14.00,2013-03-07 00:00:00,
2013-03-06 19:05:00,30.9,27.8,30.03,NE,45,8.9,8.9,88,0.00,,---,0.00,VWS V14.00,2013-03-07 00:05:00,
2013-03-06 19:10:00,30.7,27.3,30.04,NE,45,6.4,6.4,87,0.00,,---,0.00,VWS V14.00,2013-03-07 00:10:00,
2013-03-06 19:15:00,30.7,27.3,30.04,NNW,338,6.9,6.9,87,0.00,,---,0.00,VWS V14.00,2013-03-07 00:15:00,
2013-03-06 19:20:00,30.7,27.3,30.04,NE,45,4.6,4.6,87,0.00,,---,0.00,VWS V14.00,2013-03-07 00:20:00,
2013-03-06 19:25:00,30.7,27.6,30.04,NE,45,11.8,11.8,88,0.00,,---,0.00,VWS V14.00,2013-03-07 00:25:00,
2013-03-06 19:30:00,30.7,27.6,30.04,ENE,68,2.6,2.6,88,0.00,,---,0.00,VWS V14.00,2013-03-07 00:30:00,
2013-03-06 19:36:00,30.7,27.6,30.04,ENE,68,3.3,3.3,88,0.00,,---,0.00,VWS V14.00,2013-03-07 00:36:00,
2013-03-06 19:41:00,30.7,27.6,30.05,North,0,0.0,0.0,88,0.00,,---,0.00,VWS V14.00,2013-03-07 00:41:00,
2013-03-06 19:45:00,30.5,27.4,30.04,ENE,68,6.0,6.0,88,0.00,,---,0.00,VWS V14.00,2013-03-07 00:45:00,
2013-03-06 19:51:00,30.5,27.4,30.04,NE,45,1.1,1.1,88,0.00,,---,0.00,VWS V14.00,2013-03-07 00:51:00,
2013-03-06 19:56:00,30.5,27.4,30.04,WNW,292,3.3,3.3,88,0.00,,---,0.00,VWS V14.00,2013-03-07 00:56:00,
2013-03-06 20:01:00,30.3,27.2,30.05,West,270,6.0,6.0,88,0.00,,---,0.00,VWS V14.00,2013-03-07 01:01:00,
2013-03-06 20:06:00,30.3,27.2,30.05,ENE,68,6.2,10.0,88,0.00,,---,0.00,VWS V14.00,2013-03-07 01:06:00,
2013-03-06 20:11:00,30.3,27.2,30.05,ENE,68,3.5,3.5,88,0.00,,---,0.00,VWS V14.00,2013-03-07 01:11:00,
2013-03-06 20:16:00,30.3,27.2,30.05,ENE,68,4.0,5.8,88,0.00,,---,0.00,VWS V14.00,2013-03-07 01:16:00,
2013-03-06 20:21:00,30.3,27.2,30.05,ENE,68,0.8,0.8,88,0.00,,---,0.00,VWS V14.00,2013-03-07 01:21:00,
2013-03-06 20:26:00,30.2,27.1,30.05,NE,45,2.4,2.4,88,0.00,,---,0.00,VWS V14.00,2013-03-07 01:26:00,
2013-03-06 20:31:00,30.2,27.4,30.05,ENE,68,0.0,0.0,89,0.00,,---,0.00,VWS V14.00,2013-03-07 01:31:00,
2013-03-06 20:36:00,30.3,27.2,30.05,ENE,68,1.3,2.4,88,0.00,,---,0.00,VWS V14.00,2013-03-07 01:36:00,
2013-03-06 20:41:00,30.3,27.2,30.05,NE,45,3.3,3.3,88,0.00,,---,0.00,VWS V14.00,2013-03-07 01:41:00,
2013-03-06 20:46:00,30.3,27.2,30.05,NW,315,0.0,3.3,88,0.00,,---,0.00,VWS V14.00,2013-03-07 01:46:00,
2013-03-06 20:51:00,30.3,27.2,30.04,West,270,1.3,1.3,88,0.00,,---,0.00,VWS V14.00,2013-03-07 01:51:00,
2013-03-06 20:56:00,30.3,27.2,30.05,WNW,292,2.2,2.2,88,0.00,,---,0.00,VWS V14.00,2013-03-07 01:56:00,
2013-03-06 21:01:00,30.3,27.2,30.05,North,0,2.0,2.0,88,0.00,,---,0.00,VWS V14.00,2013-03-07 02:01:00,
2013-03-06 21:06:00,30.3,27.2,30.05,WNW,292,2.2,3.3,88,0.00,,---,0.00,VWS V14.00,2013-03-07 02:06:00,
2013-03-06 21:11:00,30.3,27.2,30.05,WNW,292,0.0,0.0,88,0.00,,---,0.00,VWS V14.00,2013-03-07 02:11:00,
2013-03-06 21:16:00,30.2,27.1,30.04,NE,45,0.0,0.0,88,0.00,,---,0.00,VWS V14.00,2013-03-07 02:16:00,
2013-03-06 21:21:00,30.3,27.2,30.05,WNW,292,0.0,0.0,88,0.00,,---,0.00,VWS V14.00,2013-03-07 02:21:00,
2013-03-06 21:26:00,30.3,27.2,30.05,WNW,292,4.6,4.6,88,0.00,,---,0.00,VWS V14.00,2013-03-07 02:26:00,
2013-03-06 21:31:00,30.3,27.5,30.04,ENE,68,2.6,10.5,89,0.00,,---,0.00,VWS V14.00,2013-03-07 02:31:00,
2013-03-06 21:36:00,30.2,27.4,30.05,ENE,68,1.7,10.5,89,0.00,,---,0.00,VWS V14.00,2013-03-07 02:36:00,
2013-03-06 21:41:00,30.2,27.4,30.05,WNW,292,4.2,4.2,89,0.00,,---,0.00,VWS V14.00,2013-03-07 02:41:00,
2013-03-06 21:46:00,30.2,27.4,30.05,ENE,68,7.3,7.3,89,0.00,,---,0.00,VWS V14.00,2013-03-07 02:46:00,
2013-03-06 21:51:00,30.0,27.2,30.05,NNE,22,0.0,0.0,89,0.00,,---,0.00,VWS V14.00,2013-03-07 02:51:00,
2013-03-06 21:56:00,30.2,27.4,30.05,ENE,68,5.1,5.1,89,0.00,,---,0.00,VWS V14.00,2013-03-07 02:56:00,
2013-03-06 22:01:00,30.0,27.2,30.05,NE,45,4.4,4.4,89,0.00,,---,0.00,VWS V14.00,2013-03-07 03:01:00,
2013-03-06 22:06:00,30.0,27.2,30.07,NE,45,3.3,4.4,89,0.00,,---,0.00,VWS V14.00,2013-03-07 03:06:00,
2013-03-06 22:11:00,30.0,27.2,30.06,NNE,22,1.5,1.5,89,0.00,,---,0.00,VWS V14.00,2013-03-07 03:11:00,
2013-03-06 22:16:00,30.0,27.2,30.07,NNE,22,0.0,6.2,89,0.00,,---,0.00,VWS V14.00,2013-03-07 03:16:00,
2013-03-06 22:21:00,30.0,27.2,30.07,NNW,338,0.2,0.2,89,0.00,,---,0.00,VWS V14.00,2013-03-07 03:21:00,
2013-03-06 22:26:00,30.0,27.2,30.07,WNW,292,3.5,3.5,89,0.00,,---,0.00,VWS V14.00,2013-03-07 03:26:00,
2013-03-06 22:31:00,30.0,27.2,30.08,WNW,292,1.5,1.5,89,0.00,,---,0.00,VWS V14.00,2013-03-07 03:31:00,
2013-03-06 22:36:00,30.0,27.2,30.08,WNW,292,3.8,3.8,89,0.00,,---,0.00,VWS V14.00,2013-03-07 03:36:00,
2013-03-06 22:41:00,30.0,27.2,30.08,WNW,292,5.3,5.8,89,0.00,,---,0.00,VWS V14.00,2013-03-07 03:41:00,
2013-03-06 22:46:00,30.0,27.2,30.08,WNW,292,3.8,5.8,89,0.00,,---,0.00,VWS V14.00,2013-03-07 03:46:00,
2013-03-06 22:51:00,30.0,27.2,30.08,NW,315,2.2,2.2,89,0.00,,---,0.00,VWS V14.00,2013-03-07 03:51:00,
2013-03-06 22:56:00,30.0,27.2,30.08,NE,45,2.2,2.2,89,0.00,,---,0.00,VWS V14.00,2013-03-07 03:56:00,
2013-03-06 23:01:00,30.0,27.2,30.08,ENE,68,5.5,5.5,89,0.00,,---,0.00,VWS V14.00,2013-03-07 04:01:00,
2013-03-06 23:06:00,30.0,27.2,30.08,ENE,68,4.4,5.5,89,0.00,,---,0.00,VWS V14.00,2013-03-07 04:06:00,
2013-03-06 23:11:00,30.0,27.2,30.08,NW,315,1.1,1.5,89,0.00,,---,0.00,VWS V14.00,2013-03-07 04:11:00,
2013-03-06 23:16:00,30.0,27.2,30.08,West,270,6.0,6.0,89,0.00,,---,0.00,VWS V14.00,2013-03-07 04:16:00,
2013-03-06 23:21:00,30.0,27.2,30.08,ESE,112,3.3,3.3,89,0.00,,---,0.00,VWS V14.00,2013-03-07 04:21:00,
2013-03-06 23:27:00,30.0,27.2,30.08,ENE,68,2.2,5.3,89,0.00,,---,0.00,VWS V14.00,2013-03-07 04:27:00,
2013-03-06 23:32:00,29.8,27.0,30.08,WNW,292,2.9,6.2,89,0.00,,---,0.00,VWS V14.00,2013-03-07 04:32:00,
2013-03-06 23:37:00,29.8,27.0,30.07,WNW,292,4.0,6.2,89,0.00,,---,0.00,VWS V14.00,2013-03-07 04:37:00,
2013-03-06 23:42:00,29.8,27.0,30.07,NE,45,3.5,3.8,89,0.00,,---,0.00,VWS V14.00,2013-03-07 04:42:00,
2013-03-06 23:47:00,29.8,27.0,30.07,West,270,0.0,4.0,89,0.00,,---,0.00,VWS V14.00,2013-03-07 04:47:00,
2013-03-06 23:52:00,29.6,26.8,30.07,WNW,292,7.8,7.8,89,0.00,,---,0.00,VWS V14.00,2013-03-07 04:52:00,
2013-03-06 23:57:00,29.6,26.8,30.07,North,0,0.0,7.8,89,0.00,,---,0.00,VWS V14.00,2013-03-07 04:57:00,